Weather History for KAQW - July, 2014

Change the Weather History Date:

Wednesday, July 23, 2014

  Actual Average Record
Temperature  
Mean Temperature 76 °F -  
Max Temperature 88 °F 77 °F 90 °F (2011)
Min Temperature 66 °F 55 °F 46 °F (1997)
Cooling Degree Days 12    
Growing Degree Days 26 (Base 50)    
Moisture  
Dew Point 69 °F    
Average Humidity 84    
Maximum Humidity 97    
Minimum Humidity 55    
Precipitation  
Precipitation 0.39 in - - ()
Sea Level Pressure  
Sea Level Pressure 29.85 in    
Wind  
Wind Speed 2 mph (SW)    
Max Wind Speed 9 mph    
Max Gust Speed 17 mph    
Visibility 7 miles    
Events Rain , Thunderstorm    
Averages and records for this station are not official NWS values.
T = Trace of Precipitation, MM = Missing Value Source: NWS Daily Summary

Daily Weather History Graph

Daily Weather History Graph

Search for Another Location

Airport or City:

Trip Planner

Search our weather history database for the weather conditions in past years. The results will help you decide how hot, cold, wet, or windy it might be!

Date:

Astronomy

Jul. 23, 2014 Rise Set
Actual Time 5:35 AM EDT 8:22 PM EDT
Civil Twilight 5:02 AM EDT 8:55 PM EDT
Nautical Twilight 4:20 AM EDT 9:36 PM EDT
Astronomical Twilight 3:32 AM EDT 10:24 PM EDT
Moon 2:52 AM EDT (7/23) 5:48 PM EDT (7/23)
Length of Visible Light 15h 53m
Length of Day
14h 47m
Waning Crescent, 10% of the Moon is Illuminated
Jul 23
Waning Crescent
Jul 26
New
Aug 3
First Quarter
Aug 10
Full
Aug 17
Last Quarter

Hourly Weather History & Observations

Time (EDT) Temp. Heat Index Dew Point Humidity Pressure Visibility Wind Dir Wind Speed Gust Speed Precip Events Conditions
12:52 AM 69.1 °F - 66.9 °F 93% 29.99 in 8.0 mi Calm Calm - N/A   Clear
1:52 AM 66.9 °F - 66.0 °F 97% 29.97 in 6.0 mi Calm Calm - N/A   Clear
2:52 AM 66.0 °F - 64.9 °F 96% 29.95 in 5.0 mi Calm Calm - N/A   Clear
3:52 AM 66.9 °F - 66.0 °F 97% 29.94 in 5.0 mi Calm Calm - N/A   Mostly Cloudy
4:52 AM 66.9 °F - 66.0 °F 97% 29.93 in 5.0 mi Calm Calm - N/A   Overcast
5:52 AM 69.1 °F - 66.9 °F 93% 29.93 in 6.0 mi Calm Calm - N/A   Clear
6:12 AM 68.0 °F - 66.9 °F 96% 29.94 in 4.0 mi Calm Calm - N/A   Scattered Clouds
6:52 AM 69.1 °F - 68.0 °F 96% 29.93 in 4.0 mi Calm Calm - N/A   Mostly Cloudy
7:36 AM 72.0 °F - 69.1 °F 91% 29.94 in 6.0 mi Calm Calm - N/A   Mostly Cloudy
7:52 AM 73.9 °F - 69.1 °F 85% 29.93 in 9.0 mi SE 5.8 mph - N/A   Scattered Clouds
8:52 AM 75.9 °F - 69.1 °F 79% 29.93 in 10.0 mi Variable 5.8 mph - N/A   Scattered Clouds
9:17 AM 79.0 °F - 70.0 °F 74% 29.92 in 10.0 mi Variable 3.5 mph - N/A   Scattered Clouds
9:52 AM 80.1 °F 83.2 °F 70.0 °F 71% 29.89 in 10.0 mi Calm Calm - N/A   Unknown
10:52 AM 82.9 °F 87.0 °F 70.0 °F 65% 29.87 in 10.0 mi West 6.9 mph 17.3 mph N/A   Clear
11:52 AM 84.9 °F 90.1 °F 71.1 °F 63% 29.85 in 10.0 mi Variable 6.9 mph - N/A   Partly Cloudy
1:52 PM 86.0 °F 90.7 °F 70.0 °F 59% 29.81 in 10.0 mi SW 6.9 mph - N/A   Partly Cloudy
3:52 PM 87.1 °F 91.3 °F 69.1 °F 55% 29.76 in 10.0 mi Variable 5.8 mph - N/A   Partly Cloudy
4:52 PM 86.0 °F 90.7 °F 70.0 °F 59% 29.73 in 10.0 mi Calm Calm - N/A   Clear
5:28 PM 84.0 °F 89.0 °F 71.1 °F 65% 29.76 in 10.0 mi South 3.5 mph - N/A Thunderstorm Mostly Cloudy
5:39 PM 82.0 °F 86.3 °F 71.1 °F 69% 29.76 in 7.0 mi SSW 8.1 mph - 0.00 in Rain , Thunderstorm Light Thunderstorms and Rain
5:52 PM 79.0 °F - 71.1 °F 77% 29.76 in 9.0 mi Calm Calm - 0.00 in Thunderstorm Thunderstorm
6:04 PM 79.0 °F - 71.1 °F 77% 29.75 in 10.0 mi Calm Calm - N/A Thunderstorm Partly Cloudy
6:14 PM 77.0 °F - 69.1 °F 76% 29.76 in 10.0 mi West 9.2 mph - N/A   Scattered Clouds
6:23 PM 75.9 °F - 66.9 °F 74% 29.80 in 10.0 mi North - - N/A Thunderstorm Mostly Cloudy
6:34 PM 73.0 °F - 66.9 °F 81% 29.81 in 2.5 mi West 5.8 mph - 0.12 in Rain , Thunderstorm Heavy Thunderstorms and Rain
6:37 PM 72.0 °F - 66.9 °F 84% 29.81 in 1.2 mi West 6.9 mph - 0.18 in Rain , Thunderstorm Heavy Thunderstorms and Rain
6:52 PM 70.0 °F - 66.0 °F 87% 29.80 in 1.5 mi Calm Calm - 0.29 in Rain , Thunderstorm Heavy Thunderstorms and Rain
7:01 PM 69.1 °F - 68.0 °F 96% 29.82 in 2.5 mi Calm Calm - 0.03 in Rain , Thunderstorm Thunderstorms and Rain
7:09 PM 69.1 °F - 68.0 °F 96% 29.82 in 4.0 mi ESE 4.6 mph - 0.05 in Rain , Thunderstorm Thunderstorms and Rain
7:22 PM 69.1 °F - 68.0 °F 96% 29.83 in 7.0 mi Calm Calm - 0.05 in Rain , Thunderstorm Light Rain
7:35 PM 70.0 °F - 68.0 °F 93% 29.82 in 8.0 mi Calm Calm - 0.05 in   Mostly Cloudy
7:52 PM 70.0 °F - 68.0 °F 93% 29.80 in 6.0 mi SW 3.5 mph - 0.05 in   Mostly Cloudy
8:52 PM 70.0 °F - 69.1 °F 97% 29.82 in 7.0 mi Calm Calm - 0.01 in   Mostly Cloudy
9:00 PM 70.0 °F - 69.1 °F 97% 29.84 in 6.0 mi Calm Calm - N/A   Overcast
9:52 PM 70.0 °F - 69.1 °F 97% 29.82 in 4.0 mi North 5.8 mph - 0.04 in Rain Light Rain
10:13 PM 71.1 °F - 69.1 °F 93% 29.84 in 8.0 mi Calm Calm - 0.02 in Rain Light Rain
11:00 PM 71.1 °F - 69.1 °F 93% 29.84 in 6.0 mi Calm Calm - N/A   Overcast